#datetime,building,power
2023-07-23T00:00:00,rvs,23.39
2023-07-23T00:01:00,rvs,23.14
2023-07-23T00:02:00,rvs,24.12
2023-07-23T00:03:00,rvs,20.20
2023-07-23T00:04:00,rvs,15.62
2023-07-23T00:05:00,rvs,15.73
2023-07-23T00:06:00,rvs,15.81
2023-07-23T00:07:00,rvs,15.69
2023-07-23T00:08:00,rvs,15.81
2023-07-23T00:09:00,rvs,17.25
2023-07-23T00:10:00,rvs,16.44
2023-07-23T00:11:00,rvs,15.62
2023-07-23T00:12:00,rvs,11.92
2023-07-23T00:13:00,rvs,11.78
2023-07-23T00:14:00,rvs,11.84
2023-07-23T00:15:00,rvs,11.80
2023-07-23T00:16:00,rvs,11.71
2023-07-23T00:17:00,rvs,11.83
2023-07-23T00:18:00,rvs,11.82
2023-07-23T00:19:00,rvs,11.84
2023-07-23T00:20:00,rvs,12.63
2023-07-23T00:21:00,rvs,13.11
2023-07-23T00:22:00,rvs,12.83
2023-07-23T00:23:00,rvs,14.56
2023-07-23T00:24:00,rvs,14.45
2023-07-23T00:25:00,rvs,15.51
2023-07-23T00:26:00,rvs,14.25
2023-07-23T00:27:00,rvs,14.52
2023-07-23T00:28:00,rvs,15.03
2023-07-23T00:29:00,rvs,15.21
2023-07-23T00:30:00,rvs,15.36
2023-07-23T00:31:00,rvs,29.52
2023-07-23T00:32:00,rvs,31.38
2023-07-23T00:33:00,rvs,31.22
2023-07-23T00:34:00,rvs,30.13
2023-07-23T00:35:00,rvs,18.27
2023-07-23T00:36:00,rvs,19.56
2023-07-23T00:37:00,rvs,19.92
2023-07-23T00:38:00,rvs,16.36
2023-07-23T00:39:00,rvs,15.96
2023-07-23T00:40:00,rvs,16.99
2023-07-23T00:41:00,rvs,18.20
2023-07-23T00:42:00,rvs,17.27
2023-07-23T00:43:00,rvs,15.66
2023-07-23T00:44:00,rvs,15.64
2023-07-23T00:45:00,rvs,15.53
2023-07-23T00:46:00,rvs,11.23
2023-07-23T00:47:00,rvs,10.99
2023-07-23T00:48:00,rvs,10.89
2023-07-23T00:49:00,rvs,11.90
2023-07-23T00:50:00,rvs,12.37
2023-07-23T00:51:00,rvs,12.46
2023-07-23T00:52:00,rvs,11.28
2023-07-23T00:53:00,rvs,11.26
2023-07-23T00:54:00,rvs,11.19
2023-07-23T00:55:00,rvs,11.22
2023-07-23T00:56:00,rvs,11.26
2023-07-23T00:57:00,rvs,14.50
2023-07-23T00:58:00,rvs,14.46
2023-07-23T00:59:00,rvs,15.16
2023-07-23T01:00:00,rvs,13.65
2023-07-23T01:01:00,rvs,11.28
2023-07-23T01:02:00,rvs,11.31
2023-07-23T01:03:00,rvs,11.41
2023-07-23T01:04:00,rvs,11.51
2023-07-23T01:05:00,rvs,12.47
2023-07-23T01:06:00,rvs,12.29
2023-07-23T01:07:00,rvs,12.43
2023-07-23T01:08:00,rvs,12.26
2023-07-23T01:09:00,rvs,14.08
2023-07-23T01:10:00,rvs,14.47
2023-07-23T01:11:00,rvs,14.01
2023-07-23T01:12:00,rvs,15.14
2023-07-23T01:13:00,rvs,18.30
2023-07-23T01:14:00,rvs,18.92
2023-07-23T01:15:00,rvs,20.48
2023-07-23T01:16:00,rvs,20.09
2023-07-23T01:17:00,rvs,21.21
2023-07-23T01:18:00,rvs,21.80
2023-07-23T01:19:00,rvs,22.82
2023-07-23T01:20:00,rvs,24.08
2023-07-23T01:21:00,rvs,27.12
2023-07-23T01:22:00,rvs,27.09
2023-07-23T01:23:00,rvs,25.36
2023-07-23T01:24:00,rvs,25.44
2023-07-23T01:25:00,rvs,23.96
2023-07-23T01:26:00,rvs,24.11
2023-07-23T01:27:00,rvs,22.54
2023-07-23T01:28:00,rvs,19.88
2023-07-23T01:29:00,rvs,20.08
2023-07-23T01:30:00,rvs,20.30
2023-07-23T01:31:00,rvs,19.44
2023-07-23T01:32:00,rvs,15.02
2023-07-23T01:33:00,rvs,15.15
2023-07-23T01:34:00,rvs,15.06
2023-07-23T01:35:00,rvs,15.41
2023-07-23T01:36:00,rvs,11.11
2023-07-23T01:37:00,rvs,11.21
2023-07-23T01:38:00,rvs,11.70
2023-07-23T01:39:00,rvs,12.44
2023-07-23T01:40:00,rvs,11.93
2023-07-23T01:41:00,rvs,11.96
2023-07-23T01:42:00,rvs,11.52
2023-07-23T01:43:00,rvs,11.46
2023-07-23T01:44:00,rvs,11.02
2023-07-23T01:45:00,rvs,11.02
2023-07-23T01:46:00,rvs,13.32
2023-07-23T01:47:00,rvs,13.31
2023-07-23T01:48:00,rvs,13.70
2023-07-23T01:49:00,rvs,13.76
2023-07-23T01:50:00,rvs,12.47
2023-07-23T01:51:00,rvs,11.59
2023-07-23T01:52:00,rvs,12.01
2023-07-23T01:53:00,rvs,11.94
2023-07-23T01:54:00,rvs,11.72
2023-07-23T01:55:00,rvs,11.95
2023-07-23T01:56:00,rvs,12.77
2023-07-23T01:57:00,rvs,13.04
2023-07-23T01:58:00,rvs,12.30
2023-07-23T01:59:00,rvs,10.62
2023-07-23T02:00:00,rvs,10.58
2023-07-23T02:01:00,rvs,12.54
2023-07-23T02:02:00,rvs,12.95
2023-07-23T02:03:00,rvs,13.30
2023-07-23T02:04:00,rvs,13.79
2023-07-23T02:05:00,rvs,14.69
2023-07-23T02:06:00,rvs,15.24
2023-07-23T02:07:00,rvs,16.38
2023-07-23T02:08:00,rvs,15.09
2023-07-23T02:09:00,rvs,15.17
2023-07-23T02:10:00,rvs,15.35
2023-07-23T02:11:00,rvs,17.53
2023-07-23T02:12:00,rvs,18.07
2023-07-23T02:13:00,rvs,18.55
2023-07-23T02:14:00,rvs,17.25
2023-07-23T02:15:00,rvs,17.66
2023-07-23T02:16:00,rvs,18.08
2023-07-23T02:17:00,rvs,18.87
2023-07-23T02:18:00,rvs,17.94
2023-07-23T02:19:00,rvs,18.37
2023-07-23T02:20:00,rvs,18.21
2023-07-23T02:21:00,rvs,18.51
2023-07-23T02:22:00,rvs,18.11
2023-07-23T02:23:00,rvs,15.93
2023-07-23T02:24:00,rvs,15.11
2023-07-23T02:25:00,rvs,15.21
2023-07-23T02:26:00,rvs,10.85
2023-07-23T02:27:00,rvs,10.44
2023-07-23T02:28:00,rvs,10.41
2023-07-23T02:29:00,rvs,10.35
2023-07-23T02:30:00,rvs,10.41
2023-07-23T02:31:00,rvs,10.36
2023-07-23T02:32:00,rvs,10.50
2023-07-23T02:33:00,rvs,11.16
2023-07-23T02:34:00,rvs,11.69
2023-07-23T02:35:00,rvs,10.71
2023-07-23T02:36:00,rvs,12.56
2023-07-23T02:37:00,rvs,13.09
2023-07-23T02:38:00,rvs,13.09
2023-07-23T02:39:00,rvs,13.16
2023-07-23T02:40:00,rvs,14.09
2023-07-23T02:41:00,rvs,14.93
2023-07-23T02:42:00,rvs,15.21
2023-07-23T02:43:00,rvs,15.13
2023-07-23T02:44:00,rvs,14.19
2023-07-23T02:45:00,rvs,14.20
2023-07-23T02:46:00,rvs,14.63
2023-07-23T02:47:00,rvs,14.72
2023-07-23T02:48:00,rvs,14.51
2023-07-23T02:49:00,rvs,15.03
2023-07-23T02:50:00,rvs,17.01
2023-07-23T02:51:00,rvs,17.68
2023-07-23T02:52:00,rvs,19.81
2023-07-23T02:53:00,rvs,16.80
2023-07-23T02:54:00,rvs,17.87
2023-07-23T02:55:00,rvs,17.94
2023-07-23T02:56:00,rvs,19.53
2023-07-23T02:57:00,rvs,19.72
2023-07-23T02:58:00,rvs,19.51
2023-07-23T02:59:00,rvs,18.43
2023-07-23T03:00:00,rvs,20.68
2023-07-23T03:01:00,rvs,23.06
2023-07-23T03:02:00,rvs,22.57
2023-07-23T03:03:00,rvs,23.21
2023-07-23T03:04:00,rvs,23.48
2023-07-23T03:05:00,rvs,23.20
2023-07-23T03:06:00,rvs,19.57
2023-07-23T03:07:00,rvs,19.27
2023-07-23T03:08:00,rvs,15.64
2023-07-23T03:09:00,rvs,15.28
2023-07-23T03:10:00,rvs,15.25
2023-07-23T03:11:00,rvs,14.48
2023-07-23T03:12:00,rvs,14.33
2023-07-23T03:13:00,rvs,14.22
2023-07-23T03:14:00,rvs,14.19
2023-07-23T03:15:00,rvs,14.94
2023-07-23T03:16:00,rvs,15.49
2023-07-23T03:17:00,rvs,16.85
2023-07-23T03:18:00,rvs,11.30
2023-07-23T03:19:00,rvs,12.29
2023-07-23T03:20:00,rvs,12.20
2023-07-23T03:21:00,rvs,12.15
2023-07-23T03:22:00,rvs,11.04
2023-07-23T03:23:00,rvs,10.68
2023-07-23T03:24:00,rvs,10.68
2023-07-23T03:25:00,rvs,10.65
2023-07-23T03:26:00,rvs,10.63
2023-07-23T03:27:00,rvs,10.68
2023-07-23T03:28:00,rvs,10.97
2023-07-23T03:29:00,rvs,11.87
2023-07-23T03:30:00,rvs,14.75
2023-07-23T03:31:00,rvs,15.18
2023-07-23T03:32:00,rvs,28.33
2023-07-23T03:33:00,rvs,27.42
2023-07-23T03:34:00,rvs,27.78
2023-07-23T03:35:00,rvs,14.94
2023-07-23T03:36:00,rvs,14.37
2023-07-23T03:37:00,rvs,14.19
2023-07-23T03:38:00,rvs,13.85
2023-07-23T03:39:00,rvs,13.90
2023-07-23T03:40:00,rvs,14.19
2023-07-23T03:41:00,rvs,15.15
2023-07-23T03:42:00,rvs,15.75
2023-07-23T03:43:00,rvs,11.67
2023-07-23T03:44:00,rvs,11.45
2023-07-23T03:45:00,rvs,10.46
2023-07-23T03:46:00,rvs,10.49
2023-07-23T03:47:00,rvs,10.92
2023-07-23T03:48:00,rvs,11.10
2023-07-23T03:49:00,rvs,10.97
2023-07-23T03:50:00,rvs,10.00
2023-07-23T03:51:00,rvs,10.20
2023-07-23T03:52:00,rvs,11.08
2023-07-23T03:53:00,rvs,11.25
2023-07-23T03:54:00,rvs,11.21
2023-07-23T03:55:00,rvs,10.10
2023-07-23T03:56:00,rvs,10.51
2023-07-23T03:57:00,rvs,10.47
2023-07-23T03:58:00,rvs,10.39
2023-07-23T03:59:00,rvs,10.39
2023-07-23T04:00:00,rvs,10.41
2023-07-23T04:01:00,rvs,11.34
2023-07-23T04:02:00,rvs,11.40
2023-07-23T04:03:00,rvs,11.44
2023-07-23T04:04:00,rvs,9.97
2023-07-23T04:05:00,rvs,9.96
2023-07-23T04:06:00,rvs,10.07
2023-07-23T04:07:00,rvs,10.09
2023-07-23T04:08:00,rvs,10.10
2023-07-23T04:09:00,rvs,10.00
2023-07-23T04:10:00,rvs,10.42
2023-07-23T04:11:00,rvs,11.32
2023-07-23T04:12:00,rvs,10.39
2023-07-23T04:13:00,rvs,10.38
2023-07-23T04:14:00,rvs,10.44
2023-07-23T04:15:00,rvs,10.42
2023-07-23T04:16:00,rvs,13.07
2023-07-23T04:17:00,rvs,13.25
2023-07-23T04:18:00,rvs,13.95
2023-07-23T04:19:00,rvs,13.16
2023-07-23T04:20:00,rvs,13.74
2023-07-23T04:21:00,rvs,13.85
2023-07-23T04:22:00,rvs,14.54
2023-07-23T04:23:00,rvs,17.02
2023-07-23T04:24:00,rvs,17.78
2023-07-23T04:25:00,rvs,18.24
2023-07-23T04:26:00,rvs,12.83
2023-07-23T04:27:00,rvs,14.24
2023-07-23T04:28:00,rvs,14.95
2023-07-23T04:29:00,rvs,17.70
2023-07-23T04:30:00,rvs,18.16
2023-07-23T04:31:00,rvs,16.19
2023-07-23T04:32:00,rvs,16.70
2023-07-23T04:33:00,rvs,17.97
2023-07-23T04:34:00,rvs,19.35
2023-07-23T04:35:00,rvs,19.76
2023-07-23T04:36:00,rvs,19.61
2023-07-23T04:37:00,rvs,19.65
2023-07-23T04:38:00,rvs,14.81
2023-07-23T04:39:00,rvs,14.78
2023-07-23T04:40:00,rvs,16.12
2023-07-23T04:41:00,rvs,15.91
2023-07-23T04:42:00,rvs,15.61
2023-07-23T04:43:00,rvs,15.22
2023-07-23T04:44:00,rvs,14.48
2023-07-23T04:45:00,rvs,9.92
2023-07-23T04:46:00,rvs,9.91
2023-07-23T04:47:00,rvs,9.97
2023-07-23T04:48:00,rvs,9.86
2023-07-23T04:49:00,rvs,9.87
2023-07-23T04:50:00,rvs,10.01
2023-07-23T04:51:00,rvs,10.26
2023-07-23T04:52:00,rvs,11.08
2023-07-23T04:53:00,rvs,11.93
2023-07-23T04:54:00,rvs,11.56
2023-07-23T04:55:00,rvs,11.63
2023-07-23T04:56:00,rvs,10.49
2023-07-23T04:57:00,rvs,10.49
2023-07-23T04:58:00,rvs,10.56
2023-07-23T04:59:00,rvs,11.05
2023-07-23T05:00:00,rvs,10.09
2023-07-23T05:01:00,rvs,10.10
2023-07-23T05:02:00,rvs,10.11
2023-07-23T05:03:00,rvs,10.06
2023-07-23T05:04:00,rvs,10.26
2023-07-23T05:05:00,rvs,10.55
2023-07-23T05:06:00,rvs,10.57
2023-07-23T05:07:00,rvs,10.54
2023-07-23T05:08:00,rvs,12.65
2023-07-23T05:09:00,rvs,12.77
2023-07-23T05:10:00,rvs,11.39
2023-07-23T05:11:00,rvs,10.34
2023-07-23T05:12:00,rvs,10.40
2023-07-23T05:13:00,rvs,9.89
2023-07-23T05:14:00,rvs,9.94
2023-07-23T05:15:00,rvs,9.95
2023-07-23T05:16:00,rvs,9.85
2023-07-23T05:17:00,rvs,9.83
2023-07-23T05:18:00,rvs,9.79
2023-07-23T05:19:00,rvs,9.83
2023-07-23T05:20:00,rvs,10.65
2023-07-23T05:21:00,rvs,12.74
2023-07-23T05:22:00,rvs,13.37
2023-07-23T05:23:00,rvs,13.38
2023-07-23T05:24:00,rvs,12.31
2023-07-23T05:25:00,rvs,12.84
2023-07-23T05:26:00,rvs,13.95
2023-07-23T05:27:00,rvs,16.61
2023-07-23T05:28:00,rvs,17.86
2023-07-23T05:29:00,rvs,17.01
2023-07-23T05:30:00,rvs,17.45
2023-07-23T05:31:00,rvs,14.83
2023-07-23T05:32:00,rvs,14.88
2023-07-23T05:33:00,rvs,14.68
2023-07-23T05:34:00,rvs,14.49
2023-07-23T05:35:00,rvs,15.17
2023-07-23T05:36:00,rvs,13.22
2023-07-23T05:37:00,rvs,14.07
2023-07-23T05:38:00,rvs,13.14
2023-07-23T05:39:00,rvs,13.22
2023-07-23T05:40:00,rvs,13.35
2023-07-23T05:41:00,rvs,13.73
2023-07-23T05:42:00,rvs,14.00
2023-07-23T05:43:00,rvs,14.35
2023-07-23T05:44:00,rvs,14.76
2023-07-23T05:45:00,rvs,16.07
2023-07-23T05:46:00,rvs,16.55
2023-07-23T05:47:00,rvs,16.34
2023-07-23T05:48:00,rvs,15.72
2023-07-23T05:49:00,rvs,13.98
2023-07-23T05:50:00,rvs,14.68
2023-07-23T05:51:00,rvs,13.91
2023-07-23T05:52:00,rvs,15.25
2023-07-23T05:53:00,rvs,15.86
2023-07-23T05:54:00,rvs,16.06
2023-07-23T05:55:00,rvs,12.30
2023-07-23T05:56:00,rvs,12.46
2023-07-23T05:57:00,rvs,13.17
2023-07-23T05:58:00,rvs,15.89
2023-07-23T05:59:00,rvs,16.33
2023-07-23T06:00:00,rvs,17.16
2023-07-23T06:01:00,rvs,17.07
2023-07-23T06:02:00,rvs,18.03
2023-07-23T06:03:00,rvs,19.92
2023-07-23T06:04:00,rvs,19.71
2023-07-23T06:05:00,rvs,19.57
2023-07-23T06:06:00,rvs,18.21
2023-07-23T06:07:00,rvs,18.07
2023-07-23T06:08:00,rvs,20.09
2023-07-23T06:09:00,rvs,21.84
2023-07-23T06:10:00,rvs,21.76
2023-07-23T06:11:00,rvs,16.66
2023-07-23T06:12:00,rvs,12.51
2023-07-23T06:13:00,rvs,13.06
2023-07-23T06:14:00,rvs,13.76
2023-07-23T06:15:00,rvs,15.21
2023-07-23T06:16:00,rvs,16.06
2023-07-23T06:17:00,rvs,29.30
2023-07-23T06:18:00,rvs,27.12
2023-07-23T06:19:00,rvs,26.95
2023-07-23T06:20:00,rvs,14.52
2023-07-23T06:21:00,rvs,15.08
2023-07-23T06:22:00,rvs,27.36
2023-07-23T06:23:00,rvs,10.20
2023-07-23T06:24:00,rvs,10.27
2023-07-23T06:25:00,rvs,10.09
2023-07-23T06:26:00,rvs,10.57
2023-07-23T06:27:00,rvs,10.49
2023-07-23T06:28:00,rvs,10.53
2023-07-23T06:29:00,rvs,10.52
2023-07-23T06:30:00,rvs,12.18
2023-07-23T06:31:00,rvs,12.27
2023-07-23T06:32:00,rvs,12.19
2023-07-23T06:33:00,rvs,11.12
2023-07-23T06:34:00,rvs,11.68
2023-07-23T06:35:00,rvs,11.71
2023-07-23T06:36:00,rvs,11.56
2023-07-23T06:37:00,rvs,11.27
2023-07-23T06:38:00,rvs,11.20
2023-07-23T06:39:00,rvs,10.89
2023-07-23T06:40:00,rvs,10.96
2023-07-23T06:41:00,rvs,10.60
2023-07-23T06:42:00,rvs,10.50
2023-07-23T06:43:00,rvs,10.73
2023-07-23T06:44:00,rvs,12.05
2023-07-23T06:45:00,rvs,12.08
2023-07-23T06:46:00,rvs,12.68
2023-07-23T06:47:00,rvs,12.73
2023-07-23T06:48:00,rvs,13.01
2023-07-23T06:49:00,rvs,13.17
2023-07-23T06:50:00,rvs,13.64
2023-07-23T06:51:00,rvs,13.83
2023-07-23T06:52:00,rvs,13.10
2023-07-23T06:53:00,rvs,12.31
2023-07-23T06:54:00,rvs,10.01
2023-07-23T06:55:00,rvs,11.07
2023-07-23T06:56:00,rvs,12.11
2023-07-23T06:57:00,rvs,11.08
2023-07-23T06:58:00,rvs,9.86
2023-07-23T06:59:00,rvs,9.79
2023-07-23T07:00:00,rvs,10.00
2023-07-23T07:01:00,rvs,10.20
2023-07-23T07:02:00,rvs,10.27
2023-07-23T07:03:00,rvs,10.44
2023-07-23T07:04:00,rvs,10.28
2023-07-23T07:05:00,rvs,10.26
2023-07-23T07:06:00,rvs,11.50
2023-07-23T07:07:00,rvs,12.72
2023-07-23T07:08:00,rvs,13.34
2023-07-23T07:09:00,rvs,12.74
2023-07-23T07:10:00,rvs,13.46
2023-07-23T07:11:00,rvs,12.64
2023-07-23T07:12:00,rvs,13.93
2023-07-23T07:13:00,rvs,13.46
2023-07-23T07:14:00,rvs,14.14
2023-07-23T07:15:00,rvs,14.71
2023-07-23T07:16:00,rvs,15.39
2023-07-23T07:17:00,rvs,14.42
2023-07-23T07:18:00,rvs,14.35
2023-07-23T07:19:00,rvs,14.28
2023-07-23T07:20:00,rvs,14.25
2023-07-23T07:21:00,rvs,15.17
2023-07-23T07:22:00,rvs,15.38
2023-07-23T07:23:00,rvs,15.53
2023-07-23T07:24:00,rvs,13.96
2023-07-23T07:25:00,rvs,13.72
2023-07-23T07:26:00,rvs,13.76
2023-07-23T07:27:00,rvs,9.89
2023-07-23T07:28:00,rvs,10.45
2023-07-23T07:29:00,rvs,9.93
2023-07-23T07:30:00,rvs,9.70
2023-07-23T07:31:00,rvs,12.06
2023-07-23T07:32:00,rvs,12.29
2023-07-23T07:33:00,rvs,12.41
2023-07-23T07:34:00,rvs,18.17
2023-07-23T07:35:00,rvs,23.32
2023-07-23T07:36:00,rvs,23.43
2023-07-23T07:37:00,rvs,22.21
2023-07-23T07:38:00,rvs,22.60
2023-07-23T07:39:00,rvs,23.86
2023-07-23T07:40:00,rvs,22.98
2023-07-23T07:41:00,rvs,22.91
2023-07-23T07:42:00,rvs,25.12
2023-07-23T07:43:00,rvs,21.79
2023-07-23T07:44:00,rvs,21.73
2023-07-23T07:45:00,rvs,22.62
2023-07-23T07:46:00,rvs,23.54
2023-07-23T07:47:00,rvs,23.77
2023-07-23T07:48:00,rvs,23.65
2023-07-23T07:49:00,rvs,24.70
2023-07-23T07:50:00,rvs,22.92
2023-07-23T07:51:00,rvs,23.05
2023-07-23T07:52:00,rvs,18.90
2023-07-23T07:53:00,rvs,19.29
2023-07-23T07:54:00,rvs,19.46
2023-07-23T07:55:00,rvs,18.90
2023-07-23T07:56:00,rvs,20.26
2023-07-23T07:57:00,rvs,19.80
2023-07-23T07:58:00,rvs,20.04
2023-07-23T07:59:00,rvs,19.69
2023-07-23T08:00:00,rvs,18.60
2023-07-23T08:01:00,rvs,18.54
2023-07-23T08:02:00,rvs,19.21
2023-07-23T08:03:00,rvs,18.93
2023-07-23T08:04:00,rvs,18.97
2023-07-23T08:05:00,rvs,18.89
2023-07-23T08:06:00,rvs,18.99
2023-07-23T08:07:00,rvs,20.70
2023-07-23T08:08:00,rvs,20.86
2023-07-23T08:09:00,rvs,19.35
2023-07-23T08:10:00,rvs,19.31
2023-07-23T08:11:00,rvs,19.12
2023-07-23T08:12:00,rvs,32.19
2023-07-23T08:13:00,rvs,31.90
2023-07-23T08:14:00,rvs,32.99
2023-07-23T08:15:00,rvs,27.80
2023-07-23T08:16:00,rvs,12.08
2023-07-23T08:17:00,rvs,16.33
2023-07-23T08:18:00,rvs,21.46
2023-07-23T08:19:00,rvs,21.32
2023-07-23T08:20:00,rvs,15.23
2023-07-23T08:21:00,rvs,10.54
2023-07-23T08:22:00,rvs,10.55
2023-07-23T08:23:00,rvs,11.03
2023-07-23T08:24:00,rvs,19.20
2023-07-23T08:25:00,rvs,10.74
2023-07-23T08:26:00,rvs,14.66
2023-07-23T08:27:00,rvs,14.63
2023-07-23T08:28:00,rvs,14.46
2023-07-23T08:29:00,rvs,15.50
2023-07-23T08:30:00,rvs,15.36
2023-07-23T08:31:00,rvs,15.34
2023-07-23T08:32:00,rvs,27.32
2023-07-23T08:33:00,rvs,14.28
2023-07-23T08:34:00,rvs,10.26
2023-07-23T08:35:00,rvs,14.35
2023-07-23T08:36:00,rvs,11.26
2023-07-23T08:37:00,rvs,15.87
2023-07-23T08:38:00,rvs,11.94
2023-07-23T08:39:00,rvs,14.79
2023-07-23T08:40:00,rvs,14.68
2023-07-23T08:41:00,rvs,14.62
2023-07-23T08:42:00,rvs,14.60
2023-07-23T08:43:00,rvs,11.52
2023-07-23T08:44:00,rvs,21.40
2023-07-23T08:45:00,rvs,18.30
2023-07-23T08:46:00,rvs,22.93
2023-07-23T08:47:00,rvs,20.07
2023-07-23T08:48:00,rvs,24.29
2023-07-23T08:49:00,rvs,24.82
2023-07-23T08:50:00,rvs,35.78
2023-07-23T08:51:00,rvs,19.77
2023-07-23T08:52:00,rvs,19.44
2023-07-23T08:53:00,rvs,23.77
2023-07-23T08:54:00,rvs,25.95
2023-07-23T08:55:00,rvs,27.21
2023-07-23T08:56:00,rvs,24.30
2023-07-23T08:57:00,rvs,23.20
2023-07-23T08:58:00,rvs,21.02
2023-07-23T08:59:00,rvs,23.36
2023-07-23T09:00:00,rvs,20.96
2023-07-23T09:01:00,rvs,20.60
2023-07-23T09:02:00,rvs,20.13
2023-07-23T09:03:00,rvs,20.24
2023-07-23T09:04:00,rvs,19.30
2023-07-23T09:05:00,rvs,18.93
2023-07-23T09:06:00,rvs,21.21
2023-07-23T09:07:00,rvs,22.44
2023-07-23T09:08:00,rvs,26.00
2023-07-23T09:09:00,rvs,27.57
2023-07-23T09:10:00,rvs,27.30
2023-07-23T09:11:00,rvs,26.74
2023-07-23T09:12:00,rvs,27.46
2023-07-23T09:13:00,rvs,30.58
2023-07-23T09:14:00,rvs,31.61
2023-07-23T09:15:00,rvs,31.47
2023-07-23T09:16:00,rvs,28.04
2023-07-23T09:17:00,rvs,27.99
2023-07-23T09:18:00,rvs,29.45
2023-07-23T09:19:00,rvs,24.86
2023-07-23T09:20:00,rvs,24.73
2023-07-23T09:21:00,rvs,25.90
2023-07-23T09:22:00,rvs,25.42
2023-07-23T09:23:00,rvs,24.20
2023-07-23T09:24:00,rvs,22.54
2023-07-23T09:25:00,rvs,19.10
2023-07-23T09:26:00,rvs,19.32
2023-07-23T09:27:00,rvs,21.41
2023-07-23T09:28:00,rvs,22.46
2023-07-23T09:29:00,rvs,23.02
2023-07-23T09:30:00,rvs,23.50
2023-07-23T09:31:00,rvs,23.15
2023-07-23T09:32:00,rvs,23.36
2023-07-23T09:33:00,rvs,23.98
2023-07-23T09:34:00,rvs,20.88
2023-07-23T09:35:00,rvs,21.16
2023-07-23T09:36:00,rvs,25.73
2023-07-23T09:37:00,rvs,26.69
2023-07-23T09:38:00,rvs,20.13
2023-07-23T09:39:00,rvs,15.73
2023-07-23T09:40:00,rvs,16.15
2023-07-23T09:41:00,rvs,16.23
2023-07-23T09:42:00,rvs,18.23
2023-07-23T09:43:00,rvs,18.98
2023-07-23T09:44:00,rvs,21.91
2023-07-23T09:45:00,rvs,23.45
2023-07-23T09:46:00,rvs,24.55
2023-07-23T09:47:00,rvs,24.16
2023-07-23T09:48:00,rvs,24.50
2023-07-23T09:49:00,rvs,23.87
2023-07-23T09:50:00,rvs,18.87
2023-07-23T09:51:00,rvs,18.43
2023-07-23T09:52:00,rvs,14.80
2023-07-23T09:53:00,rvs,14.83
2023-07-23T09:54:00,rvs,14.99
2023-07-23T09:55:00,rvs,14.91
2023-07-23T09:56:00,rvs,14.96
2023-07-23T09:57:00,rvs,15.00
2023-07-23T09:58:00,rvs,15.19
2023-07-23T09:59:00,rvs,15.22
2023-07-23T10:00:00,rvs,15.40
2023-07-23T10:01:00,rvs,15.52
2023-07-23T10:02:00,rvs,10.78
2023-07-23T10:03:00,rvs,13.53
2023-07-23T10:04:00,rvs,13.45
2023-07-23T10:05:00,rvs,13.69
2023-07-23T10:06:00,rvs,13.79
2023-07-23T10:07:00,rvs,11.98
2023-07-23T10:08:00,rvs,12.08
2023-07-23T10:09:00,rvs,11.30
2023-07-23T10:10:00,rvs,11.26
2023-07-23T10:11:00,rvs,13.08
2023-07-23T10:12:00,rvs,19.54
2023-07-23T10:13:00,rvs,19.58
2023-07-23T10:14:00,rvs,19.08
2023-07-23T10:15:00,rvs,19.34
2023-07-23T10:16:00,rvs,19.87
2023-07-23T10:17:00,rvs,20.40
2023-07-23T10:18:00,rvs,20.75
2023-07-23T10:19:00,rvs,20.28
2023-07-23T10:20:00,rvs,19.90
2023-07-23T10:21:00,rvs,19.90
2023-07-23T10:22:00,rvs,21.66
2023-07-23T10:23:00,rvs,21.59
2023-07-23T10:24:00,rvs,21.65
2023-07-23T10:25:00,rvs,22.89
2023-07-23T10:26:00,rvs,26.42
2023-07-23T10:27:00,rvs,27.92
2023-07-23T10:28:00,rvs,30.53
2023-07-23T10:29:00,rvs,29.00
2023-07-23T10:30:00,rvs,33.75
2023-07-23T10:31:00,rvs,29.62
2023-07-23T10:32:00,rvs,31.87
2023-07-23T10:33:00,rvs,26.83
2023-07-23T10:34:00,rvs,34.95
2023-07-23T10:35:00,rvs,33.69
2023-07-23T10:36:00,rvs,31.79
2023-07-23T10:37:00,rvs,34.21
2023-07-23T10:38:00,rvs,38.45
2023-07-23T10:39:00,rvs,36.75
2023-07-23T10:40:00,rvs,36.49
2023-07-23T10:41:00,rvs,38.15
2023-07-23T10:42:00,rvs,34.57
2023-07-23T10:43:00,rvs,34.34
2023-07-23T10:44:00,rvs,37.79
2023-07-23T10:45:00,rvs,25.19
2023-07-23T10:46:00,rvs,25.73
2023-07-23T10:47:00,rvs,29.54
2023-07-23T10:48:00,rvs,27.16
2023-07-23T10:49:00,rvs,23.21
2023-07-23T10:50:00,rvs,30.22
2023-07-23T10:51:00,rvs,28.10
2023-07-23T10:52:00,rvs,29.66
2023-07-23T10:53:00,rvs,33.25
2023-07-23T10:54:00,rvs,26.25
2023-07-23T10:55:00,rvs,27.61
2023-07-23T10:56:00,rvs,32.04
2023-07-23T10:57:00,rvs,28.35
2023-07-23T10:58:00,rvs,30.23
2023-07-23T10:59:00,rvs,30.69
2023-07-23T11:00:00,rvs,30.64
2023-07-23T11:01:00,rvs,29.22
2023-07-23T11:02:00,rvs,29.30
2023-07-23T11:03:00,rvs,29.01
2023-07-23T11:04:00,rvs,25.66
2023-07-23T11:05:00,rvs,23.04
2023-07-23T11:06:00,rvs,20.19
2023-07-23T11:07:00,rvs,23.12
2023-07-23T11:08:00,rvs,22.83
2023-07-23T11:09:00,rvs,16.88
2023-07-23T11:10:00,rvs,18.16
2023-07-23T11:11:00,rvs,22.15
2023-07-23T11:12:00,rvs,22.21
2023-07-23T11:13:00,rvs,12.38
2023-07-23T11:14:00,rvs,12.13
2023-07-23T11:15:00,rvs,16.42
2023-07-23T11:16:00,rvs,22.87
2023-07-23T11:17:00,rvs,24.00
2023-07-23T11:18:00,rvs,24.08
2023-07-23T11:19:00,rvs,25.12
2023-07-23T11:20:00,rvs,39.54
2023-07-23T11:21:00,rvs,34.87
2023-07-23T11:22:00,rvs,34.31
2023-07-23T11:23:00,rvs,39.58
2023-07-23T11:24:00,rvs,22.85
2023-07-23T11:25:00,rvs,23.16
2023-07-23T11:26:00,rvs,47.14
2023-07-23T11:27:00,rvs,33.66
2023-07-23T11:28:00,rvs,29.10
2023-07-23T11:29:00,rvs,33.54
2023-07-23T11:30:00,rvs,37.62
2023-07-23T11:31:00,rvs,34.39
2023-07-23T11:32:00,rvs,33.19
2023-07-23T11:33:00,rvs,30.66
2023-07-23T11:34:00,rvs,41.45
2023-07-23T11:35:00,rvs,37.91
2023-07-23T11:36:00,rvs,38.48
2023-07-23T11:37:00,rvs,42.33
2023-07-23T11:38:00,rvs,34.90
2023-07-23T11:39:00,rvs,35.39
2023-07-23T11:40:00,rvs,35.30
2023-07-23T11:41:00,rvs,39.91
2023-07-23T11:42:00,rvs,31.75
2023-07-23T11:43:00,rvs,35.44
2023-07-23T11:44:00,rvs,34.06
2023-07-23T11:45:00,rvs,33.42
2023-07-23T11:46:00,rvs,29.30
2023-07-23T11:47:00,rvs,33.85
2023-07-23T11:48:00,rvs,38.29
2023-07-23T11:49:00,rvs,26.83
2023-07-23T11:50:00,rvs,33.30
2023-07-23T11:51:00,rvs,30.97
2023-07-23T11:52:00,rvs,28.48
2023-07-23T11:53:00,rvs,47.12
2023-07-23T11:54:00,rvs,31.49
2023-07-23T11:55:00,rvs,38.36
2023-07-23T11:56:00,rvs,34.31
2023-07-23T11:57:00,rvs,33.89
2023-07-23T11:58:00,rvs,38.53
2023-07-23T11:59:00,rvs,34.66
2023-07-23T12:00:00,rvs,35.14
2023-07-23T12:01:00,rvs,35.46
2023-07-23T12:02:00,rvs,27.35
2023-07-23T12:03:00,rvs,35.60
2023-07-23T12:04:00,rvs,30.54
2023-07-23T12:05:00,rvs,27.31
2023-07-23T12:06:00,rvs,26.42
2023-07-23T12:07:00,rvs,24.40
2023-07-23T12:08:00,rvs,27.29
2023-07-23T12:09:00,rvs,25.16
2023-07-23T12:10:00,rvs,24.27
2023-07-23T12:11:00,rvs,26.19
2023-07-23T12:12:00,rvs,26.96
2023-07-23T12:13:00,rvs,28.63
2023-07-23T12:14:00,rvs,21.93
2023-07-23T12:15:00,rvs,21.39
2023-07-23T12:16:00,rvs,25.24
2023-07-23T12:17:00,rvs,21.05
2023-07-23T12:18:00,rvs,39.39
2023-07-23T12:19:00,rvs,22.34
2023-07-23T12:20:00,rvs,26.73
2023-07-23T12:21:00,rvs,21.92
2023-07-23T12:22:00,rvs,23.30
2023-07-23T12:23:00,rvs,21.64
2023-07-23T12:24:00,rvs,20.54
2023-07-23T12:25:00,rvs,18.82
2023-07-23T12:26:00,rvs,17.94
2023-07-23T12:27:00,rvs,17.18
2023-07-23T12:28:00,rvs,15.56
2023-07-23T12:29:00,rvs,15.24
2023-07-23T12:30:00,rvs,18.37
2023-07-23T12:31:00,rvs,19.32
2023-07-23T12:32:00,rvs,19.09
2023-07-23T12:33:00,rvs,20.01
2023-07-23T12:34:00,rvs,20.46
2023-07-23T12:35:00,rvs,20.45
2023-07-23T12:36:00,rvs,20.46
2023-07-23T12:37:00,rvs,25.98
2023-07-23T12:38:00,rvs,20.58
2023-07-23T12:39:00,rvs,18.80
2023-07-23T12:40:00,rvs,19.64
2023-07-23T12:41:00,rvs,19.93
2023-07-23T12:42:00,rvs,21.00
2023-07-23T12:43:00,rvs,39.84
2023-07-23T12:44:00,rvs,26.46
2023-07-23T12:45:00,rvs,29.35
2023-07-23T12:46:00,rvs,29.43
2023-07-23T12:47:00,rvs,29.34
2023-07-23T12:48:00,rvs,28.93
2023-07-23T12:49:00,rvs,28.40
2023-07-23T12:50:00,rvs,28.34
2023-07-23T12:51:00,rvs,26.51
2023-07-23T12:52:00,rvs,24.89
2023-07-23T12:53:00,rvs,42.26
2023-07-23T12:54:00,rvs,23.39
2023-07-23T12:55:00,rvs,23.14
2023-07-23T12:56:00,rvs,23.66
2023-07-23T12:57:00,rvs,24.04
2023-07-23T12:58:00,rvs,25.00
2023-07-23T12:59:00,rvs,25.33
2023-07-23T13:00:00,rvs,26.09
2023-07-23T13:01:00,rvs,16.02
2023-07-23T13:02:00,rvs,16.13
2023-07-23T13:03:00,rvs,16.20
2023-07-23T13:04:00,rvs,21.52
2023-07-23T13:05:00,rvs,24.66
2023-07-23T13:06:00,rvs,23.76
2023-07-23T13:07:00,rvs,20.77
2023-07-23T13:08:00,rvs,20.64
2023-07-23T13:09:00,rvs,24.34
2023-07-23T13:10:00,rvs,23.01
2023-07-23T13:11:00,rvs,24.16
2023-07-23T13:12:00,rvs,23.23
2023-07-23T13:13:00,rvs,37.02
2023-07-23T13:14:00,rvs,15.13
2023-07-23T13:15:00,rvs,15.36
2023-07-23T13:16:00,rvs,15.35
2023-07-23T13:17:00,rvs,16.23
2023-07-23T13:18:00,rvs,16.10